Weather History for KUBE - January, 2014

Change the Weather History Date:

Friday, January 3, 2014

  Actual Average (KRPD) Record (KRPD)
Temperature  
Mean Temperature -1 °F -  
Max Temperature 21 °F 22 °F 30 °F (2015)
Min Temperature -23 °F 7 °F 12 °F (2015)
Degree Days  
Heating Degree Days 66    
Moisture  
Dew Point -3 °F    
Average Humidity 76    
Maximum Humidity 93    
Minimum Humidity 66    
Precipitation  
Precipitation 0.00 in - - ()
Sea Level Pressure  
Sea Level Pressure 29.83 in    
Wind  
Wind Speed 9 mph (South)    
Max Wind Speed 23 mph    
Max Gust Speed 29 mph    
Visibility 9 miles    
Events Snow    
Averages and records for this station are not official NWS values.
T = Trace of Precipitation, MM = Missing Value Source: NWS Daily Summary

Daily Weather History Graph

Daily Weather History Graph

Search for Another Location

Airport or City:

Trip Planner

Search our weather history database for the weather conditions in past years. The results will help you decide how hot, cold, wet, or windy it might be!

Date:

Astronomy

Jan. 03, 2014 Rise Set
Actual Time 7:48 AM CST 4:37 PM CST
Civil Twilight 7:14 AM CST 5:11 PM CST
Nautical Twilight 6:36 AM CST 5:48 PM CST
Astronomical Twilight 6:00 AM CST 6:24 PM CST
Moon 9:05 AM CST (1/3) 7:57 PM CST (1/3)
Length of Visible Light 9h 57m
Length of Day
8h 49m
Waxing Crescent, 8% of the Moon is Illuminated
Jan 3
Waxing Crescent
Jan 7
First Quarter
Jan 15
Full
Jan 23
Last Quarter
Jan 30
New

Hourly Weather History & Observations

Time (CST) Temp. Windchill Dew Point Humidity Pressure Visibility Wind Dir Wind Speed Gust Speed Precip Events Conditions
12:15 AM -22.0 °F - -27.4 °F 76% 30.29 in 10.0 mi Calm Calm - N/A   Clear
12:35 AM -23.8 °F - -27.4 °F 83% 30.29 in 10.0 mi Calm Calm - N/A   Clear
12:55 AM -22.0 °F - -27.4 °F 76% 30.28 in 10.0 mi Calm Calm - N/A   Clear
1:15 AM -23.8 °F - -29.2 °F 76% 30.27 in 10.0 mi Calm Calm - N/A   Clear
1:35 AM -23.8 °F - -29.2 °F 76% 30.27 in 10.0 mi Calm Calm - N/A   Clear
1:55 AM -23.8 °F - -29.2 °F 76% 30.28 in 10.0 mi Calm Calm - N/A   Clear
2:15 AM -23.8 °F - -31.0 °F 69% 30.26 in 10.0 mi Calm Calm - N/A   Clear
2:35 AM -23.8 °F - -29.2 °F 76% 30.26 in 10.0 mi Calm Calm - N/A   Clear
2:55 AM -20.2 °F - -25.6 °F 76% 30.25 in 10.0 mi Calm Calm - N/A   Clear
3:15 AM -22.0 °F - -25.6 °F 83% 30.25 in 10.0 mi Calm Calm - N/A   Clear
3:35 AM -18.4 °F -28.9 °F -25.6 °F 70% 30.23 in 10.0 mi SSE 3.5 mph - N/A   Clear
3:55 AM -18.4 °F -31.4 °F -25.6 °F 70% 30.21 in 10.0 mi SSE 4.6 mph - N/A   Clear
4:15 AM -20.2 °F -33.5 °F -25.6 °F 76% 30.20 in 10.0 mi SE 4.6 mph - N/A   Scattered Clouds
4:35 AM -18.4 °F -31.4 °F -25.6 °F 70% 30.19 in 10.0 mi SSE 4.6 mph - N/A   Mostly Cloudy
4:55 AM -13.0 °F -22.7 °F -18.4 °F 77% 30.17 in 10.0 mi SSE 3.5 mph - N/A   Overcast
5:15 AM -13.0 °F -22.7 °F -18.4 °F 77% 30.16 in 10.0 mi East 3.5 mph - N/A   Overcast
5:35 AM -11.2 °F -26.4 °F -16.6 °F 77% 30.14 in 10.0 mi ESE 6.9 mph - N/A   Overcast
5:55 AM -9.4 °F -26.8 °F -14.8 °F 77% 30.13 in 10.0 mi SSE 9.2 mph - N/A   Overcast
6:15 AM -7.6 °F -24.6 °F -13.0 °F 77% 30.12 in 10.0 mi SSE 9.2 mph - N/A   Overcast
6:35 AM -5.8 °F -23.4 °F -13.0 °F 71% 30.10 in 10.0 mi South 10.4 mph - N/A   Overcast
6:55 AM -5.8 °F -21.2 °F -13.0 °F 71% 30.09 in 10.0 mi SSE 8.1 mph - N/A   Mostly Cloudy
7:15 AM -4.0 °F -19.0 °F -9.4 °F 78% 30.08 in 10.0 mi SSE 8.1 mph - N/A   Overcast
7:35 AM -2.2 °F -19.9 °F -9.4 °F 71% 30.07 in 10.0 mi SSE 11.5 mph 17.3 mph N/A   Overcast
7:55 AM -0.4 °F -20.5 °F -7.6 °F 72% 30.05 in 10.0 mi South 16.1 mph - N/A   Overcast
8:15 AM 1.4 °F -19.4 °F -5.8 °F 72% 30.03 in 10.0 mi South 18.4 mph - N/A   Overcast
8:35 AM 1.4 °F -20.5 °F -5.8 °F 72% 30.00 in 7.0 mi SSE 20.7 mph 24.2 mph N/A   Overcast
8:55 AM 1.4 °F -18.8 °F -5.8 °F 72% 29.98 in 7.0 mi SSE 17.3 mph 25.3 mph N/A   Overcast
9:15 AM 3.2 °F -16.5 °F -5.8 °F 66% 29.97 in 10.0 mi SSE 17.3 mph - N/A   Overcast
9:35 AM 3.2 °F -15.3 °F -5.8 °F 66% 29.96 in 10.0 mi SSE 15.0 mph 23.0 mph N/A   Overcast
9:55 AM 3.2 °F -15.3 °F -5.8 °F 66% 29.93 in 10.0 mi SSE 15.0 mph - N/A   Overcast
10:15 AM 3.2 °F -18.1 °F -4.0 °F 72% 29.91 in 10.0 mi SSE 20.7 mph - N/A   Overcast
10:35 AM 5.0 °F -16.7 °F -4.0 °F 66% 29.88 in 7.0 mi South 23.0 mph - N/A   Overcast
10:55 AM 5.0 °F -16.7 °F -4.0 °F 66% 29.85 in 7.0 mi South 23.0 mph - N/A   Overcast
11:15 AM 5.0 °F -15.2 °F -4.0 °F 66% 29.82 in 7.0 mi SSE 19.6 mph 28.8 mph N/A   Overcast
11:35 AM 5.0 °F -16.7 °F -2.2 °F 72% 29.81 in 7.0 mi South 23.0 mph 27.6 mph N/A   Overcast
11:55 AM 6.8 °F -13.4 °F -0.4 °F 72% 29.78 in 10.0 mi South 20.7 mph 25.3 mph N/A   Overcast
12:15 PM 8.6 °F -10.5 °F -0.4 °F 67% 29.76 in 7.0 mi South 19.6 mph - N/A   Overcast
12:35 PM 8.6 °F -10.5 °F 1.4 °F 73% 29.74 in 7.0 mi South 19.6 mph 26.5 mph N/A   Mostly Cloudy
12:55 PM 10.4 °F -9.5 °F 1.4 °F 67% 29.71 in 10.0 mi South 23.0 mph 28.8 mph N/A   Overcast
1:15 PM 10.4 °F -9.1 °F 3.2 °F 73% 29.70 in 10.0 mi South 21.9 mph 26.5 mph N/A   Overcast
1:35 PM 10.4 °F -7.7 °F 3.2 °F 73% 29.69 in 10.0 mi South 18.4 mph 23.0 mph N/A   Overcast
1:55 PM 12.2 °F -5.8 °F 3.2 °F 67% 29.67 in 10.0 mi South 19.6 mph 24.2 mph N/A   Overcast
2:15 PM 12.2 °F -5.3 °F 3.2 °F 67% 29.66 in 10.0 mi South 18.4 mph - N/A   Overcast
2:35 PM 12.2 °F -3.1 °F 5.0 °F 73% 29.65 in 10.0 mi South 13.8 mph 20.7 mph N/A   Overcast
2:55 PM 14.0 °F -1.4 °F 5.0 °F 67% 29.64 in 10.0 mi South 15.0 mph 20.7 mph N/A   Overcast
3:15 PM 14.0 °F -3.0 °F 8.6 °F 79% 29.63 in 10.0 mi South 18.4 mph - N/A Snow Light Snow
3:35 PM 14.0 °F -2.0 °F 8.6 °F 79% 29.62 in 10.0 mi South 16.1 mph - N/A Snow Light Snow
3:55 PM 14.0 °F -2.5 °F 8.6 °F 79% 29.61 in 10.0 mi South 17.3 mph 23.0 mph N/A Snow Light Snow
4:15 PM 14.0 °F -3.0 °F 8.6 °F 79% 29.59 in 7.0 mi South 18.4 mph - N/A Snow Light Snow
4:35 PM 15.8 °F -1.1 °F 10.4 °F 79% 29.59 in 7.0 mi South 19.6 mph 25.3 mph N/A Snow Light Snow
4:55 PM 15.8 °F -1.1 °F 10.4 °F 79% 29.58 in 7.0 mi South 19.6 mph 27.6 mph N/A Snow Light Snow
5:15 PM 15.8 °F -0.6 °F 10.4 °F 79% 29.59 in 10.0 mi South 18.4 mph 24.2 mph N/A   Overcast
5:35 PM 15.8 °F -0.2 °F 10.4 °F 79% 29.56 in 10.0 mi South 17.3 mph 23.0 mph N/A   Overcast
5:55 PM 15.8 °F -0.2 °F 10.4 °F 79% 29.55 in 10.0 mi South 17.3 mph 25.3 mph N/A   Overcast
6:15 PM 15.8 °F -0.2 °F 10.4 °F 79% 29.55 in 10.0 mi South 17.3 mph - N/A   Overcast
6:35 PM 15.8 °F -0.2 °F 10.4 °F 79% 29.55 in 7.0 mi South 17.3 mph 20.7 mph N/A Snow Light Snow
6:55 PM 15.8 °F -1.5 °F 12.2 °F 86% 29.54 in 7.0 mi South 20.7 mph - N/A   Overcast
7:15 PM 15.8 °F -0.2 °F 12.2 °F 86% 29.53 in 7.0 mi South 17.3 mph - N/A   Overcast
7:35 PM 15.8 °F -0.2 °F 12.2 °F 86% 29.54 in 10.0 mi South 17.3 mph 23.0 mph N/A   Overcast
7:55 PM 17.6 °F 2.7 °F 12.2 °F 79% 29.52 in 10.0 mi South 16.1 mph - N/A   Overcast
8:15 PM 17.6 °F 2.7 °F 12.2 °F 79% 29.51 in 10.0 mi South 16.1 mph 20.7 mph N/A   Overcast
8:35 PM 17.6 °F 3.2 °F 12.2 °F 79% 29.50 in 10.0 mi South 15.0 mph - N/A   Overcast
8:55 PM 17.6 °F 2.2 °F 14.0 °F 86% 29.49 in 10.0 mi South 17.3 mph - N/A   Overcast
9:15 PM 19.4 °F 4.5 °F 14.0 °F 80% 29.48 in 3.0 mi South 17.3 mph - N/A Snow Light Snow
9:35 PM 19.4 °F 4.5 °F 14.0 °F 80% 29.47 in 5.0 mi South 17.3 mph 21.9 mph N/A Snow Light Snow
9:55 PM 19.4 °F 5.5 °F 15.8 °F 86% 29.47 in 7.0 mi South 15.0 mph - N/A Snow Light Snow
10:15 PM 21.2 °F 7.8 °F 17.6 °F 86% 29.46 in 5.0 mi South 15.0 mph 20.7 mph N/A   Overcast
10:35 PM 21.2 °F 7.3 °F 17.6 °F 86% 29.46 in 4.0 mi South 16.1 mph - N/A Snow Light Snow
10:55 PM 21.2 °F 7.8 °F 19.4 °F 93% 29.45 in 2.5 mi South 15.0 mph - N/A Snow Light Snow
11:15 PM 21.2 °F 7.8 °F 19.4 °F 93% 29.44 in 1.5 mi South 15.0 mph 18.4 mph N/A Snow Light Snow
11:35 PM 21.2 °F 7.8 °F 19.4 °F 93% 29.44 in 1.2 mi South 15.0 mph - N/A Snow Light Snow
11:55 PM 21.2 °F 7.8 °F 19.4 °F 93% 29.43 in 1.0 mi South 15.0 mph - N/A Snow Snow